Location: Newark
(39.0622°N, 106.5590°E)
Time: 14:15:40
(UTC+00:00)

Vanguard 2 Rocket - All Passes

Search period start: 24 January 2020 00:00
Search period end: 03 February 2020 00:00
Orbit: 554 x 3326 km, 32.9° (Epoch: 23 January)

Date Brightness Start Highest point End Pass type
(mag) Time Alt. Az. Time Alt. Az. Time Alt. Az.
24 Jan - 00:06:28 10° WSW 00:11:54 53° S 00:21:13 10° ESE daylight
24 Jan - 02:18:28 10° W 02:25:46 45° SSW 02:38:18 10° SE daylight
24 Jan - 04:32:19 10° WSW 04:40:48 25° SSW 04:52:52 10° SSE daylight
24 Jan - 20:57:30 10° SSW 21:00:21 18° SSE 21:03:42 10° ESE visible
24 Jan - 23:07:49 10° WSW 23:12:27 47° S 23:19:51 10° E visible
25 Jan - 01:19:29 10° W 01:25:45 48° S 01:36:35 10° ESE daylight
25 Jan - 03:32:24 10° W 03:40:13 30° SSW 03:52:12 10° SSE daylight
25 Jan - 05:51:35 10° SW 05:55:41 12° SW 06:00:14 10° SSW daylight
25 Jan - 22:09:15 10° SW 22:13:15 37° SSE 22:18:55 10° E visible
26 Jan - 00:20:40 10° WSW 00:26:01 49° S 00:35:04 10° ESE daylight
26 Jan - 02:32:58 10° W 02:39:54 34° SSW 02:51:07 10° SE daylight
26 Jan - 04:48:38 10° WSW 04:54:55 16° SSW 05:02:54 10° S daylight
26 Jan - 21:10:48 10° SW 21:14:11 26° SSE 21:18:21 10° ESE visible
26 Jan - 23:21:56 10° WSW 23:26:32 48° S 23:33:52 10° ESE visible
27 Jan - 01:33:52 10° W 01:39:53 38° SSW 01:49:52 10° SE daylight
27 Jan - 03:47:49 10° WSW 03:54:22 20° SSW 04:03:27 10° SSE daylight
27 Jan - 20:12:34 10° SSW 20:15:11 17° SSE 20:17:57 10° ESE visible
27 Jan - 22:23:14 10° WSW 22:27:17 42° S 22:33:04 10° ESE visible
28 Jan - 00:34:57 10° WSW 00:40:10 41° S 00:48:41 10° ESE daylight
28 Jan - 02:47:55 10° WSW 02:54:06 24° SSW 03:03:12 10° SSE daylight
28 Jan - 19:15:19 10° SSE 19:16:06 10° SSE 19:16:52 10° SE night (unlit)
28 Jan - 21:24:32 10° SW 21:28:09 33° SSE 21:32:41 10° ESE visible
28 Jan - 23:36:10 10° WSW 23:40:40 42° S 23:47:43 10° ESE visible
29 Jan - 01:48:32 10° WSW 01:54:05 28° SSW 02:02:37 10° SE daylight
29 Jan - 04:05:32 10° SW 04:08:37 11° SSW 04:12:07 10° SSW daylight
29 Jan - 20:25:51 10° SW 20:29:07 25° SSE 20:32:39 10° ESE visible
29 Jan - 22:37:22 10° WSW 22:41:23 42° S 22:47:05 10° ESE visible
30 Jan - 00:49:26 10° WSW 00:54:20 31° SSW 01:01:54 10° SE daylight
30 Jan - 03:03:56 10° SW 03:08:21 15° SSW 03:13:56 10° S daylight
30 Jan - 19:27:11 10° SSW 19:30:03 18° SSE 19:32:48 10° ESE night (unlit)
30 Jan - 21:38:33 10° WSW 21:42:14 38° S 21:46:51 10° ESE visible
30 Jan - 23:50:31 10° WSW 23:54:50 34° S 00:01:18 10° SE daylight
31 Jan - 02:03:48 10° WSW 02:08:19 18° SSW 02:14:26 10° SSE daylight
31 Jan - 18:28:42 10° S 18:30:53 13° SSE 18:32:52 10° SE night (unlit)
31 Jan - 20:39:36 10° SW 20:43:10 32° S 20:46:59 10° ESE visible
31 Jan - 22:51:38 10° WSW 22:55:31 36° S 23:00:56 10° ESE visible
01 Feb - 01:04:19 10° WSW 01:08:33 21° SSW 01:14:30 10° SSE daylight
01 Feb - 19:40:31 10° SW 19:44:05 26° SSE 19:47:27 10° ESE night (unlit)
01 Feb - 21:52:41 10° WSW 21:56:21 36° S 22:00:52 10° ESE visible
02 Feb - 00:05:07 10° WSW 00:09:01 24° SSW 00:14:27 10° SE daylight
02 Feb - 18:41:16 10° SW 18:44:58 21° SSE 18:48:04 10° ESE night (unlit)
02 Feb - 20:53:36 10° WSW 20:57:15 36° S 21:01:10 10° ESE visible
02 Feb - 23:06:03 10° WSW 23:09:40 27° SSW 23:14:29 10° SE visible
